owner,sensor,date,latitude,longitude,air_temperature,qcFlag 
TCOON,ioos:station:TCOON:003:1,2013-12-09T14:54:00Z,26.8015,-97.4706,9.4,1111122 
TCOON,ioos:station:TCOON:003:1,2013-12-09T15:18:00Z,26.8015,-97.4706,9.5,1111122 
TCOON,ioos:station:TCOON:003:1,2013-12-09T17:18:00Z,26.8015,-97.4706,11.5,1111122 
TCOON,ioos:station:TCOON:003:1,2013-12-09T18:18:00Z,26.8015,-97.4706,11.9,1111122 
TCOON,ioos:station:TCOON:003:1,2013-12-09T19:24:00Z,26.8015,-97.4706,11.7,1111122 
TCOON,ioos:station:TCOON:003:1,2013-12-09T20:24:00Z,26.8015,-97.4706,11.9,1111122 
TCOON,ioos:station:TCOON:003:1,2013-12-09T21:24:00Z,26.8015,-97.4706,12.1,1111122 
TCOON,ioos:station:TCOON:003:1,2013-12-09T22:24:00Z,26.8015,-97.4706,12.1,1111122 
TCOON,ioos:station:TCOON:003:1,2013-12-09T23:24:00Z,26.8015,-97.4706,11.7,1111122 
TCOON,ioos:station:TCOON:003:1,2013-12-10T00:24:00Z,26.8015,-97.4706,11.2,1111122 
TCOON,ioos:station:TCOON:003:1,2013-12-10T01:24:00Z,26.8015,-97.4706,10.2,1111122 
TCOON,ioos:station:TCOON:003:1,2013-12-10T02:24:00Z,26.8015,-97.4706,9.8,1111122 
TCOON,ioos:station:TCOON:003:1,2013-12-10T03:24:00Z,26.8015,-97.4706,9.4,1111122 
TCOON,ioos:station:TCOON:003:1,2013-12-10T04:24:00Z,26.8015,-97.4706,8.6,1111122 
TCOON,ioos:station:TCOON:003:1,2013-12-10T05:24:00Z,26.8015,-97.4706,8.1,1111122 
TCOON,ioos:station:TCOON:003:1,2013-12-10T05:54:00Z,26.8015,-97.4706,7.7,1111122 
TCOON,ioos:station:TCOON:003:1,2013-12-10T06:54:00Z,26.8015,-97.4706,6.8,1111122 
TCOON,ioos:station:TCOON:003:1,2013-12-10T07:54:00Z,26.8015,-97.4706,5.8,1111122 
TCOON,ioos:station:TCOON:003:1,2013-12-10T08:24:00Z,26.8015,-97.4706,5.5,1111122 
TCOON,ioos:station:TCOON:003:1,2013-12-10T09:18:00Z,26.8015,-97.4706,5.1,1111122 
TCOON,ioos:station:TCOON:003:1,2013-12-10T09:54:00Z,26.8015,-97.4706,4.7,1111122 
TCOON,ioos:station:TCOON:003:1,2013-12-10T10:24:00Z,26.8015,-97.4706,4.3,1111122 
TCOON,ioos:station:TCOON:003:1,2013-12-10T11:24:00Z,26.8015,-97.4706,4.0,1111122 
TCOON,ioos:station:TCOON:003:1,2013-12-10T12:24:00Z,26.8015,-97.4706,4.9,1111122 
TCOON,ioos:station:TCOON:003:1,2013-12-10T13:24:00Z,26.8015,-97.4706,4.8,1111122 
TCOON,ioos:station:TCOON:003:1,2013-12-10T13:54:00Z,26.8015,-97.4706,4.5,1111122 
TCOON,ioos:station:TCOON:003:1,2013-12-10T14:24:00Z,26.8015,-97.4706,4.5,1111122 
TCOON,ioos:station:TCOON:003:1,2013-12-10T15:24:00Z,26.8015,-97.4706,4.2,1111122 
TCOON,ioos:station:TCOON:003:1,2013-12-10T15:54:00Z,26.8015,-97.4706,4.4,1111122 
TCOON,ioos:station:TCOON:003:1,2013-12-10T16:24:00Z,26.8015,-97.4706,4.5,1111122 
TCOON,ioos:station:TCOON:003:1,2013-12-10T16:54:00Z,26.8015,-97.4706,4.6,1111122 
TCOON,ioos:station:TCOON:003:1,2013-12-10T17:24:00Z,26.8015,-97.4706,4.9,1111122 
TCOON,ioos:station:TCOON:003:1,2013-12-10T17:54:00Z,26.8015,-97.4706,5.1,1111122 
TCOON,ioos:station:TCOON:003:1,2013-12-10T18:24:00Z,26.8015,-97.4706,5.4,1111122 
TCOON,ioos:station:TCOON:003:1,2013-12-10T19:24:00Z,26.8015,-97.4706,5.8,1111122 
TCOON,ioos:station:TCOON:003:1,2013-12-10T19:54:00Z,26.8015,-97.4706,6.1,1111122 
TCOON,ioos:station:TCOON:003:1,2013-12-10T21:24:00Z,26.8015,-97.4706,6.9,1111122 
TCOON,ioos:station:TCOON:003:1,2013-12-10T22:24:00Z,26.8015,-97.4706,7.4,1111122 
TCOON,ioos:station:TCOON:003:1,2013-12-10T22:54:00Z,26.8015,-97.4706,7.7,1111122 
TCOON,ioos:station:TCOON:003:1,2013-12-10T23:24:00Z,26.8015,-97.4706,7.8,1111122 
TCOON,ioos:station:TCOON:003:1,2013-12-10T23:54:00Z,26.8015,-97.4706,7.7,1111122 
TCOON,ioos:station:TCOON:003:1,2013-12-11T00:54:00Z,26.8015,-97.4706,7.6,1111122 
TCOON,ioos:station:TCOON:003:1,2013-12-11T01:54:00Z,26.8015,-97.4706,7.8,1111122 
TCOON,ioos:station:TCOON:003:1,2013-12-11T02:54:00Z,26.8015,-97.4706,8.0,1111122 
TCOON,ioos:station:TCOON:003:1,2013-12-11T03:24:00Z,26.8015,-97.4706,8.1,1111122 
TCOON,ioos:station:TCOON:003:1,2013-12-11T03:54:00Z,26.8015,-97.4706,8.2,1111122 
TCOON,ioos:station:TCOON:003:1,2013-12-11T04:24:00Z,26.8015,-97.4706,8.2,1111122 
TCOON,ioos:station:TCOON:003:1,2013-12-11T05:24:00Z,26.8015,-97.4706,8.2,1111122 
TCOON,ioos:station:TCOON:003:1,2013-12-11T05:54:00Z,26.8015,-97.4706,8.2,1111122 
TCOON,ioos:station:TCOON:003:1,2013-12-11T06:54:00Z,26.8015,-97.4706,8.3,1111122 
TCOON,ioos:station:TCOON:003:1,2013-12-11T07:54:00Z,26.8015,-97.4706,8.3,1111122 
TCOON,ioos:station:TCOON:003:1,2013-12-11T08:24:00Z,26.8015,-97.4706,8.4,1111122 
TCOON,ioos:station:TCOON:003:1,2013-12-11T08:54:00Z,26.8015,-97.4706,8.4,1111122 
TCOON,ioos:station:TCOON:003:1,2013-12-11T09:24:00Z,26.8015,-97.4706,8.5,1111122 
TCOON,ioos:station:TCOON:003:1,2013-12-11T09:54:00Z,26.8015,-97.4706,8.5,1111122 
TCOON,ioos:station:TCOON:003:1,2013-12-11T10:54:00Z,26.8015,-97.4706,8.6,1111122 
TCOON,ioos:station:TCOON:003:1,2013-12-11T11:24:00Z,26.8015,-97.4706,8.6,1111122 
TCOON,ioos:station:TCOON:003:1,2013-12-11T12:24:00Z,26.8015,-97.4706,8.7,1111122 
TCOON,ioos:station:TCOON:003:1,2013-12-11T12:54:00Z,26.8015,-97.4706,8.7,1111122 
TCOON,ioos:station:TCOON:003:1,2013-12-11T13:54:00Z,26.8015,-97.4706,8.8,1111122 
TCOON,ioos:station:TCOON:003:1,2013-12-11T14:24:00Z,26.8015,-97.4706,8.9,1111122 
TCOON,ioos:station:TCOON:003:1,2013-12-11T15:24:00Z,26.8015,-97.4706,9.3,1111122 
TCOON,ioos:station:TCOON:003:1,2013-12-11T15:54:00Z,26.8015,-97.4706,9.7,1111122 
TCOON,ioos:station:TCOON:003:1,2013-12-11T16:54:00Z,26.8015,-97.4706,10.6,1111122 
TCOON,ioos:station:TCOON:003:1,2013-12-11T17:24:00Z,26.8015,-97.4706,10.9,1111122 
TCOON,ioos:station:TCOON:003:1,2013-12-11T18:24:00Z,26.8015,-97.4706,10.9,1111122 
TCOON,ioos:station:TCOON:003:1,2013-12-11T18:54:00Z,26.8015,-97.4706,10.5,1111122 
TCOON,ioos:station:TCOON:003:1,2013-12-11T19:24:00Z,26.8015,-97.4706,10.4,1111122 
TCOON,ioos:station:TCOON:003:1,2013-12-11T20:24:00Z,26.8015,-97.4706,10.9,1111122 
TCOON,ioos:station:TCOON:003:1,2013-12-11T20:54:00Z,26.8015,-97.4706,10.9,1111122 
TCOON,ioos:station:TCOON:003:1,2013-12-11T21:18:00Z,26.8015,-97.4706,10.9,1111122 
TCOON,ioos:station:TCOON:003:1,2013-12-11T22:24:00Z,26.8015,-97.4706,11.0,1111122 
TCOON,ioos:station:TCOON:003:1,2013-12-11T23:24:00Z,26.8015,-97.4706,10.7,1111122 
TCOON,ioos:station:TCOON:003:1,2013-12-11T23:54:00Z,26.8015,-97.4706,10.4,1111122 
TCOON,ioos:station:TCOON:003:1,2013-12-12T00:24:00Z,26.8015,-97.4706,10.4,1111122 
TCOON,ioos:station:TCOON:003:1,2013-12-12T01:24:00Z,26.8015,-97.4706,10.0,1111122 
TCOON,ioos:station:TCOON:003:1,2013-12-12T01:54:00Z,26.8015,-97.4706,9.8,1111122 
TCOON,ioos:station:TCOON:003:1,2013-12-12T02:24:00Z,26.8015,-97.4706,9.9,1111122 
TCOON,ioos:station:TCOON:003:1,2013-12-12T02:54:00Z,26.8015,-97.4706,10.3,1111122 
TCOON,ioos:station:TCOON:003:1,2013-12-12T03:54:00Z,26.8015,-97.4706,11.2,1111122 
TCOON,ioos:station:TCOON:003:1,2013-12-12T04:24:00Z,26.8015,-97.4706,10.9,1111122 
TCOON,ioos:station:TCOON:003:1,2013-12-12T04:54:00Z,26.8015,-97.4706,10.1,1111122 
TCOON,ioos:station:TCOON:003:1,2013-12-12T05:54:00Z,26.8015,-97.4706,10.0,1111122 
TCOON,ioos:station:TCOON:003:1,2013-12-12T06:24:00Z,26.8015,-97.4706,10.8,1111122 
TCOON,ioos:station:TCOON:003:1,2013-12-12T06:54:00Z,26.8015,-97.4706,10.9,1111122 
TCOON,ioos:station:TCOON:003:1,2013-12-12T07:24:00Z,26.8015,-97.4706,11.1,1111122 
TCOON,ioos:station:TCOON:003:1,2013-12-12T07:54:00Z,26.8015,-97.4706,11.0,1111122 
TCOON,ioos:station:TCOON:003:1,2013-12-12T08:24:00Z,26.8015,-97.4706,11.0,1111122 
TCOON,ioos:station:TCOON:003:1,2013-12-12T09:24:00Z,26.8015,-97.4706,10.7,1111122 
TCOON,ioos:station:TCOON:003:1,2013-12-12T10:00:00Z,26.8015,-97.4706,10.6,1111122 
TCOON,ioos:station:TCOON:003:1,2013-12-12T10:24:00Z,26.8015,-97.4706,10.6,1111122 
TCOON,ioos:station:TCOON:003:1,2013-12-12T10:54:00Z,26.8015,-97.4706,10.5,1111122 
TCOON,ioos:station:TCOON:003:1,2013-12-12T11:24:00Z,26.8015,-97.4706,10.4,1111122 
TCOON,ioos:station:TCOON:003:1,2013-12-12T12:24:00Z,26.8015,-97.4706,10.2,1111122 
TCOON,ioos:station:TCOON:003:1,2013-12-12T12:54:00Z,26.8015,-97.4706,10.1,1111122 
TCOON,ioos:station:TCOON:003:1,2013-12-12T13:24:00Z,26.8015,-97.4706,10.2,1111122 
TCOON,ioos:station:TCOON:003:1,2013-12-12T13:54:00Z,26.8015,-97.4706,10.0,1111122 
TCOON,ioos:station:TCOON:003:1,2013-12-12T14:24:00Z,26.8015,-97.4706,9.9,1111122 
TCOON,ioos:station:TCOON:003:1,2013-12-12T15:18:00Z,26.8015,-97.4706,9.5,1111122 
TCOON,ioos:station:TCOON:003:1,2013-12-12T16:24:00Z,26.8015,-97.4706,10.0,1111122 
TCOON,ioos:station:TCOON:003:1,2013-12-12T17:18:00Z,26.8015,-97.4706,10.6,1111122 
TCOON,ioos:station:TCOON:003:1,2013-12-12T18:24:00Z,26.8015,-97.4706,11.4,1111122 
TCOON,ioos:station:TCOON:003:1,2013-12-12T19:24:00Z,26.8015,-97.4706,12.0,1111122 
TCOON,ioos:station:TCOON:003:1,2013-12-12T20:24:00Z,26.8015,-97.4706,12.4,1111122 
TCOON,ioos:station:TCOON:003:1,2013-12-12T21:24:00Z,26.8015,-97.4706,12.6,1111122 
TCOON,ioos:station:TCOON:003:1,2013-12-12T22:24:00Z,26.8015,-97.4706,12.6,1111122 
TCOON,ioos:station:TCOON:003:1,2013-12-12T23:54:00Z,26.8015,-97.4706,11.9,1111122 
TCOON,ioos:station:TCOON:003:1,2013-12-13T00:54:00Z,26.8015,-97.4706,12.1,1111122 
TCOON,ioos:station:TCOON:003:1,2013-12-13T01:54:00Z,26.8015,-97.4706,12.0,1111122 
TCOON,ioos:station:TCOON:003:1,2013-12-13T03:00:00Z,26.8015,-97.4706,11.4,1111122 
TCOON,ioos:station:TCOON:003:1,2013-12-13T03:54:00Z,26.8015,-97.4706,11.0,1111122 
TCOON,ioos:station:TCOON:003:1,2013-12-13T05:00:00Z,26.8015,-97.4706,10.3,1111122 
TCOON,ioos:station:TCOON:003:1,2013-12-13T05:54:00Z,26.8015,-97.4706,9.7,1111122 
TCOON,ioos:station:TCOON:003:1,2013-12-13T06:12:00Z,26.8015,-97.4706,9.8,1111122 
TCOON,ioos:station:TCOON:003:1,2013-12-13T06:48:00Z,26.8015,-97.4706,9.8,1111122 
TCOON,ioos:station:TCOON:003:1,2013-12-13T07:18:00Z,26.8015,-97.4706,9.6,1111122 
TCOON,ioos:station:TCOON:003:1,2013-12-13T07:48:00Z,26.8015,-97.4706,9.8,1111122 
TCOON,ioos:station:TCOON:003:1,2013-12-13T08:18:00Z,26.8015,-97.4706,10.0,1111122 
TCOON,ioos:station:TCOON:003:1,2013-12-13T09:00:00Z,26.8015,-97.4706,10.1,1111122 
TCOON,ioos:station:TCOON:003:1,2013-12-13T09:24:00Z,26.8015,-97.4706,10.1,1111122 
TCOON,ioos:station:TCOON:003:1,2013-12-13T09:48:00Z,26.8015,-97.4706,10.1,1111122 
TCOON,ioos:station:TCOON:003:1,2013-12-13T10:18:00Z,26.8015,-97.4706,10.3,1111122 
TCOON,ioos:station:TCOON:003:1,2013-12-13T10:48:00Z,26.8015,-97.4706,10.4,1111122 
TCOON,ioos:station:TCOON:003:1,2013-12-13T11:24:00Z,26.8015,-97.4706,10.7,1111122 
TCOON,ioos:station:TCOON:003:1,2013-12-13T11:48:00Z,26.8015,-97.4706,10.6,1111122 
TCOON,ioos:station:TCOON:003:1,2013-12-13T12:18:00Z,26.8015,-97.4706,10.7,1111122 
TCOON,ioos:station:TCOON:003:1,2013-12-13T12:48:00Z,26.8015,-97.4706,10.8,1111122 
TCOON,ioos:station:TCOON:003:1,2013-12-13T13:18:00Z,26.8015,-97.4706,11.0,1111122 
TCOON,ioos:station:TCOON:003:1,2013-12-13T13:48:00Z,26.8015,-97.4706,11.0,1111122 
TCOON,ioos:station:TCOON:003:1,2013-12-13T14:18:00Z,26.8015,-97.4706,11.0,1111122 
TCOON,ioos:station:TCOON:003:1,2013-12-13T14:48:00Z,26.8015,-97.4706,11.0,1111122 
TCOON,ioos:station:TCOON:003:1,2013-12-13T15:18:00Z,26.8015,-97.4706,11.5,1111122 
TCOON,ioos:station:TCOON:003:1,2013-12-13T15:48:00Z,26.8015,-97.4706,13.0,1111122 
TCOON,ioos:station:TCOON:003:1,2013-12-13T16:48:00Z,26.8015,-97.4706,14.9,1111122 
TCOON,ioos:station:TCOON:003:1,2013-12-13T17:00:00Z,26.8015,-97.4706,15.1,1111122 
TCOON,ioos:station:TCOON:003:1,2013-12-13T17:30:00Z,26.8015,-97.4706,15.1,1111122 
TCOON,ioos:station:TCOON:003:1,2013-12-13T18:00:00Z,26.8015,-97.4706,15.8,1111122 
TCOON,ioos:station:TCOON:003:1,2013-12-13T18:30:00Z,26.8015,-97.4706,16.8,1111122 
TCOON,ioos:station:TCOON:003:1,2013-12-13T19:00:00Z,26.8015,-97.4706,18.3,1111122 
TCOON,ioos:station:TCOON:003:1,2013-12-13T19:30:00Z,26.8015,-97.4706,17.9,1111122 
TCOON,ioos:station:TCOON:003:1,2013-12-13T20:00:00Z,26.8015,-97.4706,17.4,1111122 
TCOON,ioos:station:TCOON:003:1,2013-12-13T20:36:00Z,26.8015,-97.4706,16.2,1111122 
TCOON,ioos:station:TCOON:003:1,2013-12-13T21:00:00Z,26.8015,-97.4706,17.1,1111122 
TCOON,ioos:station:TCOON:003:1,2013-12-13T21:30:00Z,26.8015,-97.4706,17.5,1111122 
TCOON,ioos:station:TCOON:003:1,2013-12-13T22:00:00Z,26.8015,-97.4706,16.3,1111122 
TCOON,ioos:station:TCOON:003:1,2013-12-13T22:30:00Z,26.8015,-97.4706,15.9,1111122 
TCOON,ioos:station:TCOON:003:1,2013-12-13T23:00:00Z,26.8015,-97.4706,15.6,1111122 
TCOON,ioos:station:TCOON:003:1,2013-12-13T23:30:00Z,26.8015,-97.4706,15.8,1111122 
TCOON,ioos:station:TCOON:003:1,2013-12-14T00:00:00Z,26.8015,-97.4706,14.8,1111122 
TCOON,ioos:station:TCOON:003:1,2013-12-14T00:30:00Z,26.8015,-97.4706,15.0,1111122 
TCOON,ioos:station:TCOON:003:1,2013-12-14T01:00:00Z,26.8015,-97.4706,15.2,1111122 
TCOON,ioos:station:TCOON:003:1,2013-12-14T01:30:00Z,26.8015,-97.4706,15.2,1111122 
TCOON,ioos:station:TCOON:003:1,2013-12-14T02:00:00Z,26.8015,-97.4706,14.9,1111122 
TCOON,ioos:station:TCOON:003:1,2013-12-14T02:30:00Z,26.8015,-97.4706,14.6,1111122 
TCOON,ioos:station:TCOON:003:1,2013-12-14T03:00:00Z,26.8015,-97.4706,15.1,1111122 
TCOON,ioos:station:TCOON:003:1,2013-12-14T03:30:00Z,26.8015,-97.4706,15.4,1111122 
TCOON,ioos:station:TCOON:003:1,2013-12-14T04:00:00Z,26.8015,-97.4706,15.7,1111122 
TCOON,ioos:station:TCOON:003:1,2013-12-14T04:30:00Z,26.8015,-97.4706,16.8,1111122 
TCOON,ioos:station:TCOON:003:1,2013-12-14T05:00:00Z,26.8015,-97.4706,17.1,1111122 
TCOON,ioos:station:TCOON:003:1,2013-12-14T07:00:00Z,26.8015,-97.4706,16.7,1111122 
TCOON,ioos:station:TCOON:003:1,2013-12-14T07:06:00Z,26.8015,-97.4706,15.9,1111122 
TCOON,ioos:station:TCOON:003:1,2013-12-14T07:42:00Z,26.8015,-97.4706,15.8,1111122 
TCOON,ioos:station:TCOON:003:1,2013-12-14T08:36:00Z,26.8015,-97.4706,15.9,1111122 
TCOON,ioos:station:TCOON:003:1,2013-12-14T09:06:00Z,26.8015,-97.4706,14.9,1111122 
TCOON,ioos:station:TCOON:003:1,2013-12-14T09:36:00Z,26.8015,-97.4706,14.7,1111122 
TCOON,ioos:station:TCOON:003:1,2013-12-14T10:06:00Z,26.8015,-97.4706,14.4,1111122 
TCOON,ioos:station:TCOON:003:1,2013-12-14T10:36:00Z,26.8015,-97.4706,14.5,1111122 
TCOON,ioos:station:TCOON:003:1,2013-12-14T11:06:00Z,26.8015,-97.4706,13.9,1111122 
TCOON,ioos:station:TCOON:003:1,2013-12-14T11:36:00Z,26.8015,-97.4706,14.0,1111122 
TCOON,ioos:station:TCOON:003:1,2013-12-14T12:06:00Z,26.8015,-97.4706,14.6,1111122 
TCOON,ioos:station:TCOON:003:1,2013-12-14T12:36:00Z,26.8015,-97.4706,14.7,1111122 
TCOON,ioos:station:TCOON:003:1,2013-12-14T13:06:00Z,26.8015,-97.4706,14.5,1111122 
TCOON,ioos:station:TCOON:003:1,2013-12-14T13:36:00Z,26.8015,-97.4706,13.9,1111122 
TCOON,ioos:station:TCOON:003:1,2013-12-14T14:06:00Z,26.8015,-97.4706,13.9,1111122 
TCOON,ioos:station:TCOON:003:1,2013-12-14T14:36:00Z,26.8015,-97.4706,13.8,1111122 
TCOON,ioos:station:TCOON:003:1,2013-12-14T15:06:00Z,26.8015,-97.4706,14.1,1111122 
TCOON,ioos:station:TCOON:003:1,2013-12-14T15:36:00Z,26.8015,-97.4706,14.2,1111122 
TCOON,ioos:station:TCOON:003:1,2013-12-14T16:06:00Z,26.8015,-97.4706,14.9,1111122 
TCOON,ioos:station:TCOON:003:1,2013-12-14T16:36:00Z,26.8015,-97.4706,15.1,1111122 
TCOON,ioos:station:TCOON:003:1,2013-12-14T17:06:00Z,26.8015,-97.4706,15.7,1111122 
TCOON,ioos:station:TCOON:003:1,2013-12-14T17:36:00Z,26.8015,-97.4706,17.3,1111122 
TCOON,ioos:station:TCOON:003:1,2013-12-14T18:06:00Z,26.8015,-97.4706,18.6,1111122 
TCOON,ioos:station:TCOON:003:1,2013-12-14T18:36:00Z,26.8015,-97.4706,19.4,1111122 
TCOON,ioos:station:TCOON:003:1,2013-12-14T19:48:00Z,26.8015,-97.4706,21.1,1111122 
TCOON,ioos:station:TCOON:003:1,2013-12-14T22:06:00Z,26.8015,-97.4706,21.0,1111122 
TCOON,ioos:station:TCOON:003:1,2013-12-14T22:42:00Z,26.8015,-97.4706,19.1,1111122 
TCOON,ioos:station:TCOON:003:1,2013-12-14T23:06:00Z,26.8015,-97.4706,18.4,1111122 
TCOON,ioos:station:TCOON:003:1,2013-12-14T23:36:00Z,26.8015,-97.4706,17.4,1111122 
TCOON,ioos:station:TCOON:003:1,2013-12-15T00:06:00Z,26.8015,-97.4706,16.3,1111122 
TCOON,ioos:station:TCOON:003:1,2013-12-15T00:36:00Z,26.8015,-97.4706,15.3,1111122 
TCOON,ioos:station:TCOON:003:1,2013-12-15T01:06:00Z,26.8015,-97.4706,14.4,1111122 
TCOON,ioos:station:TCOON:003:1,2013-12-15T01:36:00Z,26.8015,-97.4706,13.5,1111122 
TCOON,ioos:station:TCOON:003:1,2013-12-15T02:06:00Z,26.8015,-97.4706,13.0,1111122 
TCOON,ioos:station:TCOON:003:1,2013-12-15T02:36:00Z,26.8015,-97.4706,12.7,1111122 
TCOON,ioos:station:TCOON:003:1,2013-12-15T03:06:00Z,26.8015,-97.4706,12.3,1111122 
TCOON,ioos:station:TCOON:003:1,2013-12-15T03:36:00Z,26.8015,-97.4706,11.5,1111122 
TCOON,ioos:station:TCOON:003:1,2013-12-15T04:06:00Z,26.8015,-97.4706,11.1,1111122 
TCOON,ioos:station:TCOON:003:1,2013-12-15T04:36:00Z,26.8015,-97.4706,11.0,1111122 
TCOON,ioos:station:TCOON:003:1,2013-12-15T05:06:00Z,26.8015,-97.4706,10.4,1111122 
TCOON,ioos:station:TCOON:003:1,2013-12-15T05:36:00Z,26.8015,-97.4706,9.9,1111122 
TCOON,ioos:station:TCOON:003:1,2013-12-15T06:06:00Z,26.8015,-97.4706,9.6,1111122 
TCOON,ioos:station:TCOON:003:1,2013-12-15T06:36:00Z,26.8015,-97.4706,9.5,1111122 
TCOON,ioos:station:TCOON:003:1,2013-12-15T07:06:00Z,26.8015,-97.4706,9.2,1111122 
TCOON,ioos:station:TCOON:003:1,2013-12-15T07:36:00Z,26.8015,-97.4706,8.9,1111122 
TCOON,ioos:station:TCOON:003:1,2013-12-15T08:12:00Z,26.8015,-97.4706,8.6,1111122 
TCOON,ioos:station:TCOON:003:1,2013-12-15T08:42:00Z,26.8015,-97.4706,8.3,1111122 
TCOON,ioos:station:TCOON:003:1,2013-12-15T09:06:00Z,26.8015,-97.4706,8.1,1111122 
TCOON,ioos:station:TCOON:003:1,2013-12-15T09:36:00Z,26.8015,-97.4706,8.0,1111122 
TCOON,ioos:station:TCOON:003:1,2013-12-15T10:06:00Z,26.8015,-97.4706,7.8,1111122 
TCOON,ioos:station:TCOON:003:1,2013-12-15T10:54:00Z,26.8015,-97.4706,6.6,1111122 
TCOON,ioos:station:TCOON:003:1,2013-12-15T11:06:00Z,26.8015,-97.4706,6.6,1111122 
TCOON,ioos:station:TCOON:003:1,2013-12-15T11:36:00Z,26.8015,-97.4706,5.9,1111122 
TCOON,ioos:station:TCOON:003:1,2013-12-15T12:12:00Z,26.8015,-97.4706,6.0,1111122 
TCOON,ioos:station:TCOON:003:1,2013-12-15T12:54:00Z,26.8015,-97.4706,5.8,1111122 
TCOON,ioos:station:TCOON:003:1,2013-12-15T13:12:00Z,26.8015,-97.4706,6.0,1111122 
TCOON,ioos:station:TCOON:003:1,2013-12-15T13:48:00Z,26.8015,-97.4706,5.9,1111122 
TCOON,ioos:station:TCOON:003:1,2013-12-15T14:12:00Z,26.8015,-97.4706,6.1,1111122 
TCOON,ioos:station:TCOON:003:1,2013-12-15T14:42:00Z,26.8015,-97.4706,6.8,1111122 
TCOON,ioos:station:TCOON:003:1,2013-12-15T15:12:00Z,26.8015,-97.4706,7.6,1111122 
TCOON,ioos:station:TCOON:003:1,2013-12-15T15:42:00Z,26.8015,-97.4706,8.2,1111122 
TCOON,ioos:station:TCOON:003:1,2013-12-15T16:12:00Z,26.8015,-97.4706,9.3,1111122 
TCOON,ioos:station:TCOON:003:1,2013-12-15T16:42:00Z,26.8015,-97.4706,10.0,1111122 
TCOON,ioos:station:TCOON:003:1,2013-12-15T17:12:00Z,26.8015,-97.4706,9.7,1111122 
TCOON,ioos:station:TCOON:003:1,2013-12-15T17:42:00Z,26.8015,-97.4706,10.2,1111122 
TCOON,ioos:station:TCOON:003:1,2013-12-15T18:12:00Z,26.8015,-97.4706,11.2,1111122 
TCOON,ioos:station:TCOON:003:1,2013-12-15T18:42:00Z,26.8015,-97.4706,12.0,1111122 
TCOON,ioos:station:TCOON:003:1,2013-12-15T19:12:00Z,26.8015,-97.4706,12.1,1111122 
TCOON,ioos:station:TCOON:003:1,2013-12-15T19:42:00Z,26.8015,-97.4706,12.2,1111122 
TCOON,ioos:station:TCOON:003:1,2013-12-15T20:12:00Z,26.8015,-97.4706,12.6,1111122 
TCOON,ioos:station:TCOON:003:1,2013-12-15T20:42:00Z,26.8015,-97.4706,12.7,1111122 
TCOON,ioos:station:TCOON:003:1,2013-12-15T21:12:00Z,26.8015,-97.4706,12.8,1111122 
TCOON,ioos:station:TCOON:003:1,2013-12-15T21:42:00Z,26.8015,-97.4706,12.6,1111122 
TCOON,ioos:station:TCOON:003:1,2013-12-15T22:12:00Z,26.8015,-97.4706,12.6,1111122 
TCOON,ioos:station:TCOON:003:1,2013-12-15T22:42:00Z,26.8015,-97.4706,12.4,1111122 
TCOON,ioos:station:TCOON:003:1,2013-12-15T23:12:00Z,26.8015,-97.4706,12.3,1111122 
TCOON,ioos:station:TCOON:003:1,2013-12-15T23:48:00Z,26.8015,-97.4706,11.8,1111122 
TCOON,ioos:station:TCOON:003:1,2013-12-16T00:12:00Z,26.8015,-97.4706,11.5,1111122 
TCOON,ioos:station:TCOON:003:1,2013-12-16T00:48:00Z,26.8015,-97.4706,11.2,1111122 
TCOON,ioos:station:TCOON:003:1,2013-12-16T01:12:00Z,26.8015,-97.4706,11.0,1111122 
TCOON,ioos:station:TCOON:003:1,2013-12-16T01:42:00Z,26.8015,-97.4706,10.6,1111122 
TCOON,ioos:station:TCOON:003:1,2013-12-16T02:42:00Z,26.8015,-97.4706,11.0,1111122 
TCOON,ioos:station:TCOON:003:1,2013-12-16T03:30:00Z,26.8015,-97.4706,10.1,1111122 
TCOON,ioos:station:TCOON:003:1,2013-12-16T03:42:00Z,26.8015,-97.4706,10.3,1111122 
TCOON,ioos:station:TCOON:003:1,2013-12-16T04:12:00Z,26.8015,-97.4706,10.5,1111122 
TCOON,ioos:station:TCOON:003:1,2013-12-16T04:42:00Z,26.8015,-97.4706,11.1,1111122 
TCOON,ioos:station:TCOON:003:1,2013-12-16T05:12:00Z,26.8015,-97.4706,10.6,1111122 
TCOON,ioos:station:TCOON:003:1,2013-12-16T06:00:00Z,26.8015,-97.4706,9.7,1111122 
TCOON,ioos:station:TCOON:003:1,2013-12-16T06:18:00Z,26.8015,-97.4706,10.4,1111122 
TCOON,ioos:station:TCOON:003:1,2013-12-16T06:42:00Z,26.8015,-97.4706,10.5,1111122 
TCOON,ioos:station:TCOON:003:1,2013-12-16T07:18:00Z,26.8015,-97.4706,11.3,1111122 
TCOON,ioos:station:TCOON:003:1,2013-12-16T07:42:00Z,26.8015,-97.4706,10.2,1111122 
TCOON,ioos:station:TCOON:003:1,2013-12-16T08:12:00Z,26.8015,-97.4706,4.6,1111122 
TCOON,ioos:station:TCOON:003:1,2013-12-16T08:42:00Z,26.8015,-97.4706,4.5,1111122 
TCOON,ioos:station:TCOON:003:1,2013-12-16T09:18:00Z,26.8015,-97.4706,4.8,1111122 
TCOON,ioos:station:TCOON:003:1,2013-12-16T09:42:00Z,26.8015,-97.4706,5.3,1111122 
TCOON,ioos:station:TCOON:003:1,2013-12-16T10:18:00Z,26.8015,-97.4706,5.3,1111122 
TCOON,ioos:station:TCOON:003:1,2013-12-16T12:36:00Z,26.8015,-97.4706,5.7,1111122 
TCOON,ioos:station:TCOON:003:1,2013-12-16T12:42:00Z,26.8015,-97.4706,5.2,1111122 
TCOON,ioos:station:TCOON:003:1,2013-12-16T16:54:00Z,26.8015,-97.4706,13.4,1111122 
TCOON,ioos:station:TCOON:003:1,2013-12-16T17:18:00Z,26.8015,-97.4706,15.0,1111122 
TCOON,ioos:station:TCOON:003:1,2013-12-16T17:48:00Z,26.8015,-97.4706,15.1,1111122 
TCOON,ioos:station:TCOON:003:1,2013-12-16T18:18:00Z,26.8015,-97.4706,15.5,1111122 
TCOON,ioos:station:TCOON:003:1,2013-12-16T18:48:00Z,26.8015,-97.4706,15.6,1111122 
TCOON,ioos:station:TCOON:003:1,2013-12-16T19:18:00Z,26.8015,-97.4706,15.9,1111122 
TCOON,ioos:station:TCOON:003:1,2013-12-16T19:48:00Z,26.8015,-97.4706,16.3,1111122 
TCOON,ioos:station:TCOON:003:1,2013-12-16T20:18:00Z,26.8015,-97.4706,16.8,1111122 
TCOON,ioos:station:TCOON:003:1,2013-12-16T20:48:00Z,26.8015,-97.4706,17.0,1111122 
TCOON,ioos:station:TCOON:003:1,2013-12-16T21:18:00Z,26.8015,-97.4706,16.7,1111122 
TCOON,ioos:station:TCOON:003:1,2013-12-16T21:48:00Z,26.8015,-97.4706,16.5,1111122 
TCOON,ioos:station:TCOON:003:1,2013-12-16T22:24:00Z,26.8015,-97.4706,16.2,1111122 
TCOON,ioos:station:TCOON:003:1,2013-12-16T22:48:00Z,26.8015,-97.4706,16.0,1111122 
TCOON,ioos:station:TCOON:003:1,2013-12-16T23:18:00Z,26.8015,-97.4706,15.7,1111122 
TCOON,ioos:station:TCOON:003:1,2013-12-16T23:48:00Z,26.8015,-97.4706,15.0,1111122 
TCOON,ioos:station:TCOON:003:1,2013-12-17T00:48:00Z,26.8015,-97.4706,14.1,1111122 
TCOON,ioos:station:TCOON:003:1,2013-12-17T02:06:00Z,26.8015,-97.4706,13.8,1111122 
TCOON,ioos:station:TCOON:003:1,2013-12-17T02:12:00Z,26.8015,-97.4706,13.8,1111122 
TCOON,ioos:station:TCOON:003:1,2013-12-17T02:54:00Z,26.8015,-97.4706,13.4,1111122 
TCOON,ioos:station:TCOON:003:1,2013-12-17T03:18:00Z,26.8015,-97.4706,13.7,1111122 
TCOON,ioos:station:TCOON:003:1,2013-12-17T04:00:00Z,26.8015,-97.4706,13.7,1111122 
TCOON,ioos:station:TCOON:003:1,2013-12-17T04:30:00Z,26.8015,-97.4706,13.2,1111122 
TCOON,ioos:station:TCOON:003:1,2013-12-17T06:48:00Z,26.8015,-97.4706,11.1,1111122 
TCOON,ioos:station:TCOON:003:1,2013-12-17T07:12:00Z,26.8015,-97.4706,11.0,1111122 
TCOON,ioos:station:TCOON:003:1,2013-12-17T07:48:00Z,26.8015,-97.4706,11.3,1111122 
TCOON,ioos:station:TCOON:003:1,2013-12-17T08:12:00Z,26.8015,-97.4706,11.3,1111122 
TCOON,ioos:station:TCOON:003:1,2013-12-17T08:54:00Z,26.8015,-97.4706,10.7,1111122 
TCOON,ioos:station:TCOON:003:1,2013-12-17T09:18:00Z,26.8015,-97.4706,10.2,1111122 
TCOON,ioos:station:TCOON:003:1,2013-12-17T09:48:00Z,26.8015,-97.4706,9.7,1111122 
TCOON,ioos:station:TCOON:003:1,2013-12-17T10:24:00Z,26.8015,-97.4706,9.9,1111122 
TCOON,ioos:station:TCOON:003:1,2013-12-17T10:48:00Z,26.8015,-97.4706,9.6,1111122 